STARLINK-2431, 47839

Orbit data source: Space-Track

STARLINK-2431, 47839 is a payload satellite owned by SpaceX/Seattle (US) in LEO that was launched on Thu, 11 Mar 2021 UTC via an FALCON 9 launch vehicle from the Air Force Eastern Test Range (AFETR). Payload-class satellites include a variety of spacecraft equipped with specific instruments for various scientific and technological missions. These include communications satellites like Starlink; space stations such as the ISS; scientific satellites like the Hubble; Earth observation satellites from companies like Planet Labs, Umbra, and HawkEye 360; GPS; miniature CubeSats for education and research; and military/defense satellites.

Loading next visibility...
Identifier
47839, 2021-018BE
Orbit
LEO
Country
Flag of USUS
Related business
Manufacturer
SpaceX/Seattle
Mission
Operational Commercial Communications
Bus & Motor
STARLINK, Unknown motor
Mass
260 kg wet, ~248 kg dry
Launch date (UTC)
2021-03-11 (5 years ago)
Launch vehicle
FALCON 9
Launch site
Air Force Eastern Test Range (AFETR)
Object type
Payload
Rocket body
Debris
Shape & HBR
Box + 1 Pan, 10.1 m
Radar Cross Section
13.562 m², Large (>1 m²)

Expand to show TLE details & history
Last TLE update: 8 hours ago

TLE from 8 hours ago
0 STARLINK-2431
1 47839U 21018BE  25292.94491326  .00005838  00000-0  41044-3 0  9991
2 47839  53.0524 133.4473 0001349  93.6805 266.4338 15.06406155255811
Epoch: 2025-10-19T22:40Z
TLE epoch observation values (Epoch: 2025-10-19T22:40:40.505Z)
Latitude
-0.00005°
Longitude
124.62419°
Altitude
548.13 km
Speed
7.589 km/s
True Right ascension
08h 53m 47s
True Declination
0° 00' 00"
Sunlit
Object was in daylight at epoch
Visualization orbit readout
Latitude
Unknown
Longitude
Unknown
Altitude
Unknown
Speed
Unknown
Apparent Right ascension
Unknown
Apparent Declination
Unknown
Sunlit
N/A
Visualization observer readout
Local Sidereal Time
01:10:38
Azimuth
Unknown
Elevation
Unknown
Doppler factor
Unknown
Orbital elements
Apogee altitude
548.398 km
Perigee altitude
546.529 km
Semi-major axis
6,925.601 km
Eccentricity
0.00013
Inclination
53.0524°
RAAN
133.4473°
Arg. of periapsis
93.6805°
True anomaly
266.41837°
Mean anomaly
266.4338°
Eccentric anomaly
266.42609°
Mean motion
3.7658 °/min
Orbital period
95.6 mins
BSTAR
0.00041044
Loading maneuver chart data...
Computing Atmospheric mass density...
Loading historical data...
Loading historical data...
Loading historical data...
Loading historical data...
Loading historical data...
Loading historical data...
Loading historical data...

Documentation

Showing up to 5 results
|